Location: Unspecified
(0.0000°N, 0.0000°E)
Time: 01:45:00
(UTC+00:00)

N. Korean satellite - Pass Details

Date: 27 February 2021
Orbit: 451 x 503 km, 97.2° (Epoch: 24 February)

Event Time Altitude Azimuth Distance (km) Brightness Sun altitude
Rises 04:16:33 0° 41° (NE) 2,532 10.6 -28.7°
Reaches altitude 10° 04:19:16 10° 64° (ENE) 1,668 9.9 -28.0°
Maximum altitude 04:21:26 15° 102° (ESE) 1,379 9.7 -27.5°
Drops below altitude 10° 04:23:36 10° 139° (SE) 1,688 9.9 -27.0°
Sets 04:26:22 0° 162° (SSE) 2,582 10.6 -26.3°
